Location: Unspecified
(50.7693°N, 0.0000°E)
Time: 21:04:55
(UTC+00:00)

A-11 Canister half - Pass Details

Date: 20 June 2019
Orbit: 1526 x 1683 km, 47.3° (Epoch: 15 July)

Event Time Altitude Azimuth Distance (km) Brightness Sun altitude
Rises 07:35:31 0° 260° (W) 4,705 11.0 32.6°
Reaches altitude 10° 07:38:35 10° 259° (W) 3,710 10.6 33.1°
Maximum altitude 07:47:51 73° 177° (S) 1,588 9.7 34.6°
Drops below altitude 10° 07:57:07 10° 96° (E) 3,707 12.4 36.1°
Sets 08:00:11 0° 94° (E) 4,701 12.5 36.5°
